Location: Atbuku
(36.4936°N, 30.4362°E)
Time: 21:26:21
(UTC+00:00)

Spot 4 Rocket - Pass Details

Date: 11 December 2025
Orbit: 769 x 773 km, 98.8° (Epoch: 12 January)

Event Time Altitude Azimuth Distance (km) Brightness Sun altitude
Rises 16:33:09 0° 166° (SSE) 3,226 7.2 -21.5°
Reaches altitude 10° 16:35:27 10° 167° (SSE) 2,304 6.5 -21.9°
Maximum altitude 16:40:32 85° 255° (WSW) 779 4.0 -22.9°
Drops below altitude 10° 16:45:40 10° 346° (NNW) 2,322 6.5 -23.9°
Sets 16:47:59 0° 347° (NNW) 3,254 7.3 -24.4°
